Location: Evergreen Manor
(41.4083°N, 81.4939°W)
Time: 04:33:16
(UTC+00:00)

SL-23 DEB - Pass Details

Date: 11 December 2019
Orbit: 423 x 3607 km, 51.5° (Epoch: 24 January)

Event Time Altitude Azimuth Distance (km) Brightness Sun altitude
Exits shadow 10:38:38 55° 65° (ENE) 518 3.9 -22.3°
Drops below altitude 10° 10:41:10 10° 56° (ENE) 1,530 6.7 -21.8°
Sets 10:43:18 0° 56° (NE) 2,493 7.8 -21.5°
